Flag Weather past 2 weeks in Guayaquil, Ecuador

Now
73 °F

Partly sunny.


Feels Like: 74 °F
Forecast: 70 / 88 °F
Wind: 7 mph from Southwest

Location: Guayaquil / Simon Bolivar

Current Time: Nov 23, 2014 at 6:37:14 AM

Latest Report: Nov 23, 2014 at 6:00 AM


Visibility: N/A

Pressure: 29.83 "Hg

Humidity: 78%

Dew point: 66 °F

Location of GuayaquilLocation

Historic Weather in Guayaquil — Graph

°F

Guayaquil temperature yesterday

Maximum temperature yesterday: 86 °F (at 2:00 PM)
Minimum temperature yesterday: 72 °F (at 12:00 AM)
Average temperature yesterday: 78 °F

Past Weeks' High & Low Weather Summary

 TemperatureHumidityPressure
High91 °F (Nov 8, 4:00 PM)88% (Nov 15, 5:00 AM)29.95 "Hg (Nov 15, 5:00 AM)
Low72 °F (Nov 8, 5:00 AM)44% (Nov 8, 4:00 PM)29.71 "Hg (Nov 8, 4:00 PM)
Average78 °F70%29.87 "Hg
* Reported Nov 8 5:00 AM — Nov 23 5:00 AM, Guayaquil, Weather by CustomWeather, © 2014

Note: Actual official high and low records may vary slightly from our data, if they occured in-between our weather recording intervals... More about our weather records

Advertising

Guayaquil weather history for previous 24 hours

 ConditionsComfort  
Time TempWeatherWind HumidityBarometerVisibility
5:00 AM
Nov 23
72 °FPassing clouds.7 mph83%29.80 "HgN/A
3:00 AM73 °FPassing clouds.7 mph78%29.80 "HgN/A
2:00 AM72 °FClear.9 mph83%29.86 "Hg10 mi
1:00 AM72 °FThunderstorms. Passing clouds.5 mph83%29.86 "HgN/A
12:00 AM73 °FClear.14 mph78%29.83 "Hg10 mi
11:00 PM
Nov 22
73 °FClear.16 mph78%29.89 "Hg10 mi
10:00 PM73 °FClear.13 mph78%29.86 "Hg10 mi
9:00 PM75 °FClear.14 mph74%29.86 "Hg10 mi
8:00 PM77 °FClear.16 mph74%29.83 "Hg10 mi
7:00 PM79 °FPassing clouds.12 mph70%29.83 "HgN/A
6:00 PM81 °FScattered clouds.13 mph70%29.80 "HgN/A
5:00 PM84 °FScattered clouds.12 mph58%29.77 "HgN/A
4:00 PM86 °FScattered clouds.7 mph52%29.77 "HgN/A
3:00 PM86 °FScattered clouds.3 mph52%29.80 "HgN/A
2:00 PM86 °FScattered clouds.6 mph52%29.83 "HgN/A
1:00 PM84 °FBroken clouds.3 mph55%29.86 "HgN/A
12:00 PM82 °FPartly sunny.5 mph62%29.89 "HgN/A
11:00 AM82 °FBroken clouds.7 mph62%29.92 "HgN/A
10:00 AM81 °FBroken clouds.6 mph66%29.92 "HgN/A
9:00 AM79 °FBroken clouds.8 mph70%29.92 "HgN/A
8:00 AM75 °FBroken clouds.6 mph78%29.92 "HgN/A
7:00 AM73 °FPartly sunny.6 mph83%29.89 "HgN/A
6:00 AM73 °FBroken clouds.12 mph83%29.89 "HgN/A
Weather by CustomWeather, © 2014

See weather overviewHow to use our weather pages